This is the latest recevied weather packets stored in our database for station/object K2RMB. If no packets are shown the sender has not sent any weather packets the latest 10 day(s).
| Time | Temp. | Humidity | Pressure | Rain* | Wind** | Luminosity | Snow |
|---|---|---|---|---|---|---|---|
| 1777591649 | 9.44° C | 75% | 1008.6 hPa | 0 mm | - | 10 W/m² | - |
| 1777591345 | 9.44° C | 75% | 1008.6 hPa | 0 mm | - | 14 W/m² | - |
| 1777591041 | 9.44° C | 75% | 1008.3 hPa | 0 mm | - | 14 W/m² | - |
| 1777590737 | 10° C | 75% | 1008.6 hPa | 0 mm | - | 15 W/m² | - |
| 1777590434 | 10° C | 75% | 1008.6 hPa | 0 mm | - | 18 W/m² | - |
| 1777590130 | 10° C | 78% | 1008.3 hPa | 0 mm | - | 20 W/m² | - |
| 1777589827 | 10° C | 76% | 1008.3 hPa | 0 mm | - | 22 W/m² | - |
| 1777589522 | 10° C | 75% | 1008.3 hPa | 0 mm | - | 23 W/m² | - |
| 1777589221 | 10° C | 75% | 1008.3 hPa | 0 mm | - | 28 W/m² | - |
| 1777588917 | 10° C | 76% | 1008.3 hPa | 0 mm | - | 28 W/m² | - |
| 1777588613 | 10° C | 77% | 1008 hPa | 0 mm | - | 37 W/m² | - |
| 1777588308 | 10° C | 74% | 1008.3 hPa | 0 mm | - | 44 W/m² | - |
| 1777588004 | 10.56° C | 73% | 1008 hPa | 0 mm | - | 51 W/m² | - |
| 1777587700 | 10.56° C | 72% | 1008 hPa | 0 mm | - | 64 W/m² | - |
| 1777587400 | 10.56° C | 72% | 1008 hPa | 0 mm | - | 68 W/m² | - |
| 1777587096 | 10.56° C | 72% | 1008 hPa | 0 mm | - | 76 W/m² | - |
| 1777586793 | 10.56° C | 70% | 1007.6 hPa | 0 mm | - | 64 W/m² | - |
| 1777586488 | 10.56° C | 68% | 1008 hPa | 0 mm | - | 64 W/m² | - |
| 1777586184 | 10.56° C | 71% | 1008 hPa | 0 mm | - | 63 W/m² | - |
| 1777585882 | 11.11° C | 70% | 1008 hPa | 0 mm | - | 77 W/m² | - |
| 1777585576 | 11.11° C | 75% | 1007.6 hPa | 0 mm | - | 111 W/m² | - |
| 1777585272 | 11.11° C | 73% | 1007.6 hPa | 0 mm | - | 118 W/m² | - |
| 1777584972 | 11.11° C | 76% | 1007.6 hPa | 0 mm | - | 123 W/m² | - |
| 1777584670 | 10.56° C | 75% | 1007.3 hPa | 0 mm | - | 108 W/m² | - |
| 1777584367 | 10.56° C | 74% | 1007.3 hPa | 0 mm | - | 100 W/m² | - |
* Rain latest hour (hover to see other rain measurements)
** Current wind speed in m/s (hover to see current wind gust speed)